Troy, MI

12:36 PM EDT on August 18, 2017 (GMT -0400)
Troy

Weather History for KVLL - October, 2012

Change the Weather History Date:

Monday, October 29, 2012

  Actual Average (KDET) Record (KDET)
Temperature  
Mean Temperature 41 °F -  
Max Temperature 44 °F 53 °F 75 °F (1999)
Min Temperature 38 °F 39 °F 24 °F (1965)
Degree Days  
Heating Degree Days 24    
Moisture  
Dew Point 32 °F    
Average Humidity 69    
Maximum Humidity 85    
Minimum Humidity 54    
Precipitation  
Precipitation 0.00 in - - ()
Sea Level Pressure  
Sea Level Pressure 29.97 in    
Wind  
Wind Speed 18 mph (North)    
Max Wind Speed 28 mph    
Max Gust Speed 41 mph    
Visibility 10 miles    
Events Rain    
Averages and records for this station are not official NWS values.
T = Trace of Precipitation, MM = Missing Value Source: NWS Daily Summary

Daily Weather History Graph

Daily Weather History Graph

Search for Another Location

Airport or City:

Trip Planner

Search our weather history database for the weather conditions in past years. The results will help you decide how hot, cold, wet, or windy it might be!

Date:

Astronomy

Oct. 29, 2012 Rise Set
Actual Time 8:03 AM EDT 6:28 PM EDT
Civil Twilight 7:34 AM EDT 6:58 PM EDT
Nautical Twilight 7:00 AM EDT 7:31 PM EDT
Astronomical Twilight 6:28 AM EDT 8:03 PM EDT
Moon 6:19 PM EDT (10/29) 7:53 AM EDT (10/29)
Length of Visible Light 11h 23m
Length of Day
10h 25m
Full, 100% of the Moon is Illuminated
Oct 29
Full
Oct 29
Full
Nov 6
Last Quarter
Nov 13
New
Nov 20
First Quarter

Hourly Weather History & Observations

Time (EDT) Temp. Windchill Dew Point Humidity Pressure Visibility Wind Dir Wind Speed Gust Speed Precip Events Conditions
12:14 AM 43.2 °F 34.7 °F 28.0 °F 55% 30.11 in 10.0 mi North 19.6 mph 26.5 mph N/A   Overcast
12:34 AM 43.3 °F 35.2 °F 27.7 °F 54% 30.10 in 10.0 mi North 18.4 mph 28.8 mph N/A   Overcast
12:55 AM 43.2 °F 34.0 °F 28.0 °F 55% 30.10 in 10.0 mi North 23.0 mph 31.1 mph N/A   Overcast
1:14 AM 43.2 °F 35.9 °F 28.0 °F 55% 30.09 in 10.0 mi North 15.0 mph 21.9 mph N/A   Overcast
1:34 AM 43.3 °F 35.5 °F 28.0 °F 55% 30.09 in 10.0 mi North 17.3 mph 25.3 mph N/A   Overcast
1:55 AM 43.0 °F 34.2 °F 28.4 °F 56% 30.08 in 10.0 mi North 20.7 mph 27.6 mph N/A   Overcast
2:14 AM 43.0 °F 36.0 °F 28.0 °F 56% 30.08 in 10.0 mi North 13.8 mph 25.3 mph N/A   Overcast
2:35 AM 43.0 °F 35.1 °F 28.0 °F 56% 30.07 in 10.0 mi North 17.3 mph 27.6 mph N/A   Overcast
2:54 AM 43.0 °F 36.4 °F 28.4 °F 56% 30.07 in 10.0 mi North 12.7 mph 20.7 mph N/A   Overcast
3:14 AM 43.2 °F 36.6 °F 28.4 °F 56% 30.07 in 10.0 mi North 12.7 mph 27.6 mph N/A   Overcast
3:35 AM 43.3 °F 35.8 °F 28.2 °F 55% 30.06 in 10.0 mi North 16.1 mph 25.3 mph N/A   Overcast
3:54 AM 43.2 °F 35.9 °F 28.9 °F 57% 30.06 in 10.0 mi North 15.0 mph 21.9 mph N/A   Overcast
4:15 AM 42.8 °F 35.1 °F 29.8 °F 60% 30.05 in 10.0 mi North 16.1 mph 23.0 mph N/A Rain Light Rain
4:35 AM 42.3 °F 35.1 °F 31.6 °F 66% 30.05 in 10.0 mi North 13.8 mph 25.3 mph N/A Rain Light Rain
4:54 AM 41.9 °F 34.3 °F 32.0 °F 68% 30.05 in 10.0 mi North 15.0 mph 28.8 mph N/A Rain Light Rain
5:15 AM 41.5 °F 34.2 °F 32.0 °F 69% 30.05 in 10.0 mi North 13.8 mph 20.7 mph N/A Rain Light Rain
5:34 AM 41.0 °F 32.2 °F 32.9 °F 73% 30.05 in 10.0 mi NNW 18.4 mph 28.8 mph N/A Rain Light Rain
5:55 AM 41.0 °F 32.5 °F 34.0 °F 76% 30.05 in 10.0 mi North 17.3 mph 27.6 mph N/A Rain Light Rain
6:14 AM 40.5 °F 32.8 °F 34.3 °F 79% 30.05 in 10.0 mi North 13.8 mph 21.9 mph N/A   Light Drizzle
7:14 AM 41.4 °F 34.3 °F 34.0 °F 75% 30.05 in 10.0 mi North 12.7 mph 23.0 mph N/A   Overcast
7:35 AM 41.2 °F 32.1 °F 34.0 °F 76% 30.05 in 10.0 mi North 19.6 mph 25.3 mph N/A   Overcast
7:55 AM 41.0 °F 32.2 °F 33.8 °F 76% 30.05 in 10.0 mi North 18.4 mph 27.6 mph N/A   Mostly Cloudy
8:14 AM 41.0 °F 33.9 °F 33.8 °F 76% 30.05 in 10.0 mi North 12.7 mph 23.0 mph N/A   Mostly Cloudy
8:35 AM 41.0 °F 33.5 °F 33.8 °F 76% 30.04 in 10.0 mi North 13.8 mph 26.5 mph N/A   Mostly Cloudy
8:54 AM 41.4 °F 32.7 °F 34.2 °F 76% 30.05 in 10.0 mi North 18.4 mph 33.4 mph N/A   Mostly Cloudy
9:15 AM 41.4 °F 34.0 °F 34.5 °F 77% 30.04 in 10.0 mi North 13.8 mph 28.8 mph N/A   Overcast
9:34 AM 41.5 °F 32.4 °F 34.7 °F 77% 30.04 in 10.0 mi North 20.7 mph 31.1 mph N/A   Overcast
9:55 AM 41.7 °F 32.6 °F 34.9 °F 77% 30.03 in 10.0 mi North 20.7 mph 26.5 mph N/A   Overcast
10:14 AM 41.9 °F 34.0 °F 35.4 °F 78% 30.03 in 10.0 mi North 16.1 mph 25.3 mph N/A   Overcast
10:35 AM 42.3 °F 33.6 °F 35.2 °F 76% 30.03 in 10.0 mi North 19.6 mph 28.8 mph N/A   Overcast
10:55 AM 42.4 °F 33.3 °F 35.1 °F 75% 30.03 in 10.0 mi North 21.9 mph 29.9 mph N/A   Overcast
11:35 AM 43.0 °F 34.5 °F 35.4 °F 75% 30.02 in 10.0 mi North 19.6 mph 29.9 mph N/A   Overcast
11:55 AM 43.0 °F 34.2 °F 35.6 °F 75% 30.01 in 10.0 mi North 20.7 mph 28.8 mph N/A   Overcast
12:14 PM 44.2 °F 37.0 °F 35.8 °F 72% 30.01 in 10.0 mi North 16.1 mph 34.5 mph N/A   Overcast
12:35 PM 43.5 °F 36.1 °F 35.6 °F 74% 30.00 in 10.0 mi North 16.1 mph 27.6 mph N/A   Overcast
12:55 PM 43.3 °F 35.5 °F 35.4 °F 74% 30.00 in 10.0 mi North 17.3 mph 32.2 mph N/A   Overcast
1:35 PM 43.0 °F 35.1 °F 35.8 °F 76% 29.98 in 10.0 mi North 17.3 mph 32.2 mph N/A   Overcast
1:54 PM 43.0 °F 33.8 °F 36.0 °F 76% 29.98 in 10.0 mi North 23.0 mph 27.6 mph N/A   Overcast
2:15 PM 43.2 °F 35.0 °F 35.4 °F 74% 29.98 in 10.0 mi North 18.4 mph 32.2 mph N/A   Overcast
2:34 PM 43.5 °F 35.8 °F 35.1 °F 72% 29.97 in 10.0 mi North 17.3 mph 29.9 mph N/A   Overcast
2:54 PM 43.3 °F 35.8 °F 34.5 °F 71% 29.96 in 10.0 mi North 16.1 mph 32.2 mph N/A   Overcast
3:15 PM 42.3 °F 33.3 °F 34.9 °F 75% 29.96 in 10.0 mi North 20.7 mph 31.1 mph N/A Rain Light Rain
3:34 PM 42.3 °F 34.1 °F 34.9 °F 75% 29.95 in 10.0 mi NNW 17.3 mph 32.2 mph N/A   Overcast
4:15 PM 41.9 °F 33.4 °F 34.5 °F 75% 29.94 in 10.0 mi North 18.4 mph 28.8 mph N/A Rain Light Rain
4:34 PM 42.3 °F 34.4 °F 34.0 °F 72% 29.94 in 10.0 mi North 16.1 mph 29.9 mph N/A   Overcast
4:55 PM 42.4 °F 32.8 °F 32.9 °F 69% 29.92 in 10.0 mi North 24.2 mph 36.8 mph N/A   Overcast
5:14 PM 42.4 °F 33.3 °F 32.2 °F 67% 29.91 in 10.0 mi North 21.9 mph 32.2 mph N/A   Overcast
5:34 PM 42.8 °F 33.1 °F 32.0 °F 66% 29.90 in 10.0 mi North 25.3 mph 34.5 mph N/A   Overcast
5:54 PM 42.6 °F 34.3 °F 31.6 °F 65% 29.90 in 10.0 mi NNW 18.4 mph 36.8 mph N/A   Overcast
6:14 PM 42.4 °F 33.5 °F 31.1 °F 64% 29.89 in 10.0 mi North 20.7 mph 34.5 mph N/A   Overcast
6:35 PM 42.8 °F 34.0 °F 30.7 °F 62% 29.89 in 10.0 mi North 20.7 mph 31.1 mph N/A   Overcast
6:54 PM 42.4 °F 32.2 °F 30.7 °F 63% 29.88 in 10.0 mi North 27.6 mph 38.0 mph N/A   Overcast
7:14 PM 42.3 °F 32.6 °F 31.1 °F 65% 29.87 in 10.0 mi North 24.2 mph 36.8 mph N/A   Overcast
7:34 PM 41.9 °F 33.7 °F 31.5 °F 66% 29.86 in 10.0 mi North 17.3 mph 32.2 mph N/A   Overcast
7:54 PM 41.4 °F 31.9 °F 31.8 °F 69% 29.85 in 10.0 mi North 21.9 mph 35.7 mph N/A   Overcast
8:15 PM 41.5 °F 32.4 °F 31.1 °F 66% 29.83 in 10.0 mi North 20.7 mph 38.0 mph N/A   Overcast
8:34 PM 41.7 °F 32.9 °F 30.9 °F 66% 29.82 in 10.0 mi North 19.6 mph 38.0 mph N/A   Overcast
8:54 PM 42.1 °F 32.6 °F 30.2 °F 63% 29.81 in 10.0 mi North 23.0 mph 40.3 mph N/A   Overcast
9:14 PM 41.9 °F 31.9 °F 30.2 °F 63% 29.80 in 10.0 mi North 25.3 mph 36.8 mph N/A   Overcast
9:34 PM 41.4 °F 31.9 °F 31.3 °F 67% 29.79 in 10.0 mi North 21.9 mph 41.4 mph N/A   Overcast
10:14 PM 40.1 °F 31.0 °F 32.5 °F 74% 29.77 in 10.0 mi North 18.4 mph 36.8 mph N/A Rain Light Rain
10:34 PM 39.4 °F 29.0 °F 33.8 °F 80% 29.76 in 10.0 mi NNW 23.0 mph 34.5 mph N/A Rain Light Rain
10:55 PM 39.2 °F 29.8 °F 33.8 °F 81% 29.75 in 10.0 mi NNW 18.4 mph 28.8 mph N/A Rain Light Rain
11:14 PM 38.8 °F 27.8 °F 34.0 °F 83% 29.73 in 10.0 mi North 25.3 mph 35.7 mph N/A Rain Light Rain
11:35 PM 38.7 °F 28.6 °F 34.3 °F 84% 29.71 in 7.0 mi NNW 20.7 mph 33.4 mph N/A Rain Light Rain
11:54 PM 38.3 °F 27.6 °F 34.2 °F 85% 29.69 in 7.0 mi North 23.0 mph 34.5 mph N/A Rain Light Rain